Skip Page Navigation
NASA JPL Caltech
NASA Logo - Jet Propulsion Laboratory + View the NASA Portal
+ Near-Earth Object (NEO) Program
Search JPL
JPL Home Earth Solar System Stars & Galaxies Technology
JPL Solar System Dynamics
BODIES ORBITS EPHEMERIDES TOOLS PHYSICAL DATA DISCOVERY FAQ SITE MAP
JPL Small-Body Database Browser
Search: [ help ]  
208115 (2000 CT101)
Classification: Apollo [NEO, PHA]          SPK-ID: 2208115
Ephemeris | Orbit Diagram | Orbital Elements | Physical Parameters | Discovery Circumstances | Close-Approach Data ]

[ hide orbit diagram ]
Orbit Diagram
Note: Make sure you have Java enabled on your browser to see the applet. This applet is provided as a 3D orbit visualization tool. The applet was implemented using 2-body methods, and hence should not be used for determining accurate long-term trajectories (over several years or decades) or planetary encounter circumstances. For accurate long-term ephemerides, please instead use our Horizons system.
Orbit Viewer

Additional Notes: the orbits shown in the applet are color coded. The planets are white lines, and the asteroid/comet is a blue line. The bright white line indicates the portion of the orbit that is above the ecliptic plane, and the darker portion is below the ecliptic plane. Likewise for the asteroid/comet orbit, the light blue indicates the portion above the ecliptic plane, and the dark blue the portion below the ecliptic plane.

Orbit Viewer applet originally written and kindly provided by Osamu Ajiki (AstroArts), and further modified by Ron Baalke (JPL).


Orbital Elements at Epoch 2456400.5 (2013-Apr-18.0) TDB
Reference: JPL 24 (heliocentric ecliptic J2000)
 Element Value Uncertainty (1-sigma)   Units 
e .3548773336424935 9.2581e-08  
a 1.299495933774323 1.5355e-08 AU
q .8383342817172291 1.2835e-07 AU
i 23.29366675784516 3.5441e-05 deg
node 135.6051098609249 1.9063e-05 deg
peri 292.376527907243 3.1573e-05 deg
M 3.950086128391998 4.6279e-05 deg
tp 2456394.563029669067
(2013-Apr-12.06302967)
6.947e-05 JED
period 541.0791688245529
1.48
9.5901e-06
2.626e-08
d
yr
n .6653370167291202 1.1792e-08 deg/d
Q 1.760657585831418 2.0804e-08 AU
  Orbit Determination Parameters
   # obs. used (total)      66  
   data-arc span      3307 days (9.05 yr)  
   first obs. used      2000-02-04  
   last obs. used      2009-02-23  
   planetary ephem.      DE405  
   SB-pert. ephem.      SB405-CPV-2  
   condition code      0  
   fit RMS      .59335  
   data source      ORB  
   producer      Otto Matic  
   solution date      2013-Apr-29 15:40:37  

Additional Information
 Earth MOID = .0117006 AU 
 T_jup = 4.862 
[ show covariance matrix ]

Ephemeris | Orbit Diagram | Orbital Elements | Physical Parameters | Discovery Circumstances | Close-Approach Data ]

Physical Parameter Table
Parameter Symbol Value Units Sigma Reference Notes
absolute magnitude H 20.757 mag .82228 24 autocmod 2.5c

208115 (2000 CT101)          Discovered 2000-Feb-15 by LINEAR at Socorro (704)
Reference: 20090311/Numbers.arcLast Updated: 2009-03-12

[ show close-approach data ]
Ephemeris | Orbit Diagram | Orbital Elements | Physical Parameters | Discovery Circumstances | Close-Approach Data ]
ABOUT SSD CREDITS/AWARDS PRIVACY/COPYRIGHT GLOSSARY LINKS
FirstGov 2013-May-18 23:33 UT
(server date/time)  
NASA Home Page
Site Manager:   Donald K. Yeomans
Webmaster  Alan B. Chamberlin